Location: Sungai Dangang
(2.7500°N, 113.8333°E)
Time: 23:17:11
(UTC+00:00)

Nadezhda 4 Rocket - Pass Details

Date: 16 May 2021
Orbit: 948 x 993 km, 82.9° (Epoch: 15 June)

Event Time Altitude Azimuth Distance (km) Brightness Sun altitude
Rises 21:10:17 0° 185° (S) 3,701 6.8 -15.7°
Reaches altitude 10° 21:12:48 10° 185° (S) 2,753 6.1 -15.1°
Maximum altitude 21:19:08 83° 273° (W) 1,002 4.0 -13.6°
Drops below altitude 10° 21:25:27 10° 1° (N) 2,741 6.6 -12.2°
Sets 21:27:57 0° 2° (N) 3,685 7.3 -11.6°
